Terug naar catalogus

STARLINK-32326

ActiefCommunicatieVLEO
NORAD 61674·PAYLOAD·🇺🇸 United States

Gelanceerd Oct 26, 2024 vanaf Cape Canaveral Space Force Station

Loading…

Volgende Passages (komende 24 uur)

TLE

VersSource: CelesTrak SupGP

Epoch: Sep 15, 2026, 03:30 UTC

1 61674C 24193P   26258.14631944  .00000123  00000+0  39642-5 0  2580
2 61674  53.1594 289.6643 0001140  94.4924 210.9731 15.31708183    10

Volg STARLINK-32326 in realtime met AllMySat

Download on the App Store